weather.gov     
National Weather Service

Regional Weather Roundup
NWS Homepage
This page is being discontinued on March 12, 2014.
The same data is available at this site. Please update your bookmarks.
Thank you, and we apologize for the inconvenience.
Please send an email to SR-SRH.Webmaster@noaa.gov with any concerns.


Current Version
Previous Version:    01  02  03  04  05  06  07  08  09  10  11  12  13  14  15  16  17  18  19  20  21  22  23  24  25  26  27  28  29  30  
   31  32  33  34  35  36  37  38  39  40  41  42  43  44  45  46  47  48  49  50  51  
[Printable]
849
ASUS42 KCHS 240425
RWRCHS

REGIONAL WEATHER ROUNDUP
NATIONAL WEATHER SERVICE CHARLESTON SC
1200 AM EDT THU JUL 24 2014

NOTE: "FAIR" INDICATES FEW OR NO CLOUDS BELOW 12,000 FEET WITH NO
SIGNIFICANT WEATHER AND/OR OBSTRUCTIONS TO VISIBILITY.

NOT ALL STATIONS ARE QUALITY CONTROLLED BY THE NATIONAL
WEATHER SERVICE. USE DATA WITH CAUTION...ESPECIALLY
DEWPOINT OBSERVATIONS.

SCZ027-030-031-034>040-042>050-240500-
...SOUTH CAROLINA...

CITY           SKY/WX    TMP DP  RH WIND       PRES   REMARKS
N CHARLESTON   PTCLDY    79  75  87 S5        29.98S
WATERFRONT PRK   N/A     82 N/A N/A SW9         N/A
FORT JOHNSON   NOT AVBL
MOUNT PLEASANT FAIR      81  77  89 SW6       29.98S
JOHNS ISLAND   CLEAR     82  72  69 S8        29.99R
PINOPOLIS        N/A     81  75  83 S5        29.90F
MONCKS CORNER    N/A     79  77  94 SW5       29.98S
SUMMERVILLE    FAIR      77  77 100 CALM      29.99R
BEAUFORT MCAS  CLEAR     82  77  84 SW5       29.98S HX  90
BEAUFORT ARPT  FAIR      81  77  89 SW5       29.98S
HILTON HEAD IS CLEAR     82  79  89 S7        30.00S HX  93
GEORGETOWN     NOT AVBL
WALTERBORO     PTCLDY    79 N/A N/A S3        30.00R
ORANGEBURG     CLEAR     78  73  84 S7        29.98R
BARNWELL       FAIR      81  75  83 SW6       29.99R
AIKEN          FAIR      75  75 100 SW3       30.01F
MANNING        FAIR      81  81 100 S8        29.97S HX  91
KINGSTREE      NOT AVBL
COLUMBIA       PTCLDY    81  73  76 S7        29.96R
SUMTER         CLEAR     79  75  87 S8        29.95R
FLORENCE       CLEAR     80  74  81 SW8       29.95S
MYRTLE BEACH   PTCLDY    81  73  78 SW7       29.97R
N MYRTLE BEACH PTCLDY    81  75  82 SW7       29.95F

$$

GAZ063-065-086>088-099>101-113>116-118-119-134-136>141-150-240500-
...GEORGIA...

CITY           SKY/WX    TMP DP  RH WIND       PRES   REMARKS
SAVANNAH ARPT  PTCLDY    81  76  84 S8        29.99S
HUNTER AAF     PTCLDY    81  78  90 S3        29.98R
FORT STEWART   PTCLDY    78  76  91 CALM      29.99S
STATESBORO     NOT AVBL
SYLVANIA       PTCLDY    79  78  96 CALM      30.00S
CLAXTON        FAIR      79  79 100 CALM      30.00R
THOMSON        CLEAR     78  78 100 CALM      30.03S
AUGUSTA-BUSH   CLEAR     74  72  93 CALM      29.97R
AUGUSTA-DANIEL CLEAR     79  71  76 W3        29.99R
SWAINSBORO     FAIR      79  79 100 CALM      30.01R
VIDALIA          N/A     77  72  83 CALM      30.01R
ALMA           PTCLDY    80  70  71 W5        30.00R
WAYCROSS       PTCLDY    83  76  80 SW6       30.01R HX  91
JESUP          NOT AVBL
BRUNSWICK      PTCLDY    82  73  74 CALM      30.01S
SAINT SIMONS   CLEAR     82  76  81 SW7       30.01R

$$

SCZ027-028-034-036>038-045-046-048>050-GAZ119-141-240500-
...LAKE AND SUPPLEMENTAL COASTAL OBSERVATIONS...

STATION/POSITION TIME  TEMP    WIND        PRES    WAVE   SWELL
                       AIR SEA DIR/SP/G            HT/PER HT/PER/DIR
                 (UTC) (F)     (DEG/KT/KT) (MB)    (FT/S) (FT/S/D)
UPR LAKE MARION  NOT AVBL
WINYAH BAY       0300   79     240/  3     1015.0S
LAKE MURRAY      0300   82     280/  5/  8 1013.9R
ACE BASIN NERRS  0300   81        CALM     1016.0S
FORT PULASKI     0400   82     190/  5/  8 1015.7S
SAPELO ISLAND    0300   83     180/ 10     1016.0S

$$

ANZ835-935-AMZ111-154-330-350-352-354-374-450-454-472-240500-
...C-MAN AND BUOY OBSERVATIONS...

STATION/POSITION TIME  TEMP    WIND        PRES    WAVE   SWELL
                       AIR SEA DIR/SP/G            HT/PER HT/PER/DIR
                 (UTC) (F)     (DEG/KT/KT) (MB)    (FT/S) (FT/S/D)
FOLLY BEACH CMAN 0400   82     210/ 15/ 17 1015.7F
BUOY 41004       0400   82 82  210/ 14/ 16 1015.0S   3/ 6   2/ 6
BUOY 41008       0400   83 84  190/ 17/ 19 1015.6S   3/ 8   2/100/ 8
5E ST. MARYS GA  0400      84                N/A     3/ 4
FRYING PAN BUOY  NOT AVBL
BUOY 41025       0400          VRB 17/ 21  1013.7F   4/ 6   2/170/ 8
CAPE LOOKOUT NC  0400   80     220/  9/ 13 1014.2F
BUOY 41002       0258   82 82  220/ 17/ 21 1017.9R   4/ 6   2/140/ 9
BUOY 41010       0400   82 83  170/ 14/ 14 1017.7F   3/ 8   2/120/ 8
BUOY 41012       NOT AVBL
ST AUGUSTINE FL  0400   81     190/  9/ 11 1017.3F
CAPERS NEARSHORE 0300   82     220/ 14/ 17   N/A
FRIPP NEARSHORE  NOT AVBL


$$




U.S. Dept. of Commerce
NOAA National Weather Service
1325 East West Highway
Silver Spring, MD 20910
E-mail: w-nws.webmaster@noaa.gov
Page last modified: May 16, 2007
NATIONAL WEATHER SERVICE: for Safety, for Work, for Fun - FOR LIFE